User: anonymous   Login
Location: Lourdes
(43.1000°N, 0.0500°W)
Time: 03:37:53
(UTC+00:00)
Language:

Cosmos 1689 Rocket - Orbit

View from above orbital plane
View from above orbital plane
View from above satellite
View from above satellite

Ground track
Ground track

The orbit data is extracted from the following two-line orbital elements,

1 16111U 85090B   21059.51477910  .00013761  00000-0  11722-3 0  9997
2 16111  97.4818 254.8562 0010607  41.4222 318.7842 15.69618490955113
Epoch (UTC): 28 February 2021 12:21:16
Eccentricity: 0.0010607
inclination: 97.4818°
perigee height: 353 km
apogee height: 367 km
right ascension of ascending node: 254.8562°
argument of perigee: 41.4222°
revolutions per day: 15.69618490
mean anomaly at epoch: 318.7842°
orbit number at epoch: 95511

The dashed part of the orbit path shows where the satellite is in the earth's shadow,  

DLR